User: anonymous   Login
Location: Br�ttisellen
(47.4227°N, 8.6287°E)
Time: 00:01:52
(UTC+00:00)
Language:

Cosmos 1833 Rocket - Orbit

View from above orbital plane
View from above orbital plane
View from above satellite
View from above satellite

Ground track
Ground track

The orbit data is extracted from the following two-line orbital elements,

1 17590U 87027B   20188.68100651  .00000131  00000-0  89201-4 0  9991
2 17590  71.0039 320.9136 0003998  17.6467 342.4794 14.16787333722117
Epoch (UTC): 06 July 2020 16:20:38
Eccentricity: 0.0003998
inclination: 71.0039°
perigee height: 833 km
apogee height: 839 km
right ascension of ascending node: 320.9136°
argument of perigee: 17.6467°
revolutions per day: 14.16787333
mean anomaly at epoch: 342.4794°
orbit number at epoch: 72211

The dashed part of the orbit path shows where the satellite is in the earth's shadow,  

DLR